Terminal Aerodrome Forecast
Issued by NWS Honolulu, HI

Home | Current Version | Previous Version | Text Only | Print | Product List | Glossary On
Versions: 1 2 3 4 5 6 7 8 9 10 11 12 13 14 15 16 17 18 19 20 21 22 23 24 25 26 27 28 29 30 31 32 33 34 35 36 37 38 39 40 41 42 43 44 45 46 47 48 49 50
000
FTPA31 PHFO 221200 AAA
TAFHNL
TAF AMD
PHNL 221230Z 2213/2318 01004KT P6SM FEW023 SCT040 BKN200
      TEMPO 2213/2215 BKN015
     FM222000 06012KT P6SM FEW025 BKN040
     FM230500 05008KT P6SM FEW028 BKN045=

USA.gov is the U.S. government's official web portal to all federal, state and local government web resources and services.